Location: Castle
(40.7167°S, 175.9500°E)
Time: 02:32:16
(UTC+00:00)

Cosmos 1244 Rocket - Pass Details

Date: 04 August 2024
Orbit: 952 x 998 km, 83.0° (Epoch: 07 September)

Event Time Altitude Azimuth Distance (km) Brightness Sun altitude
Exits shadow 17:01:13 59° 307° (NW) 1,118 4.5 -26.2°
Maximum altitude 17:02:10 67° 261° (W) 1,050 4.3 -26.0°
Drops below altitude 10° 17:08:27 10° 178° (S) 2,750 6.9 -24.8°
Sets 17:11:02 0° 175° (S) 3,711 7.6 -24.3°
